Miscellaneous Local Product
Issued by NWS Hastings, NE

Home | Current Version | Previous Version | Graphics & Text | Print | Product List | Glossary On
Versions: 1 2 3 4 5 6 7 8 9 10 11 12 13 14 15 16 17 18 19 20 21 22 23 24 25 26 27 28 29 30 31 32 33 34 35 36 37 38 39 40 41 42 43 44 45 46 47 48 49 50
000
AXUS43 KGID 260502
MISGRI

GID CWA HOURLY WEATHER ROUNDUP
NATIONAL WEATHER SERVICE HASTINGS NE
1200 AM CDT TUE MAY 26 2015

NOTE: "FAIR" INDICATES FEW OR NO CLOUDS BELOW 12,000 FEET WITH NO
SIGNIFICANT WEATHER AND/OR OBSTRUCTIONS TO VISIBILITY.

...SOUTH CENTRAL NEBRASKA...

CITY           SKY/WX    TMP DP  RH WIND       PRES   REMARKS
GRAND ISLAND   CLOUDY    61  58  90 S5        29.78F
HASTINGS       CLOUDY    61  57  87 VRB5      29.78F
KEARNEY        CLOUDY    63  50  63 NW10      29.80F
ORD            LGT RAIN  60  56  86 N8        29.80F
YORK           CLOUDY    63  57  82 S5        29.79R
AURORA         CLOUDY    62  58  87 S3        29.78S
LEXINGTON      MOCLDY    59  55  85 N13       29.83S
HOLDREGE       CLOUDY    59  49  70 W7        29.82S
HEBRON         CLOUDY    62  54  75 SE7       29.79R

...NEBRASKA PANHANDLE...

CITY           SKY/WX    TMP DP  RH WIND       PRES   REMARKS
CHADRON        CLOUDY    55  53  93 N5        29.95R
ALLIANCE       PTCLDY    49  47  93 NW7       29.94R
SCOTTSBLUFF    PTCLDY    50  48  93 NW5       29.96R
SIDNEY         MOCLDY    48  46  93 W7        29.96R

...WESTERN AND NORTH CENTRAL NEBRASKA...

CITY           SKY/WX    TMP DP  RH WIND       PRES   REMARKS
VALENTINE      MOCLDY    56  53  90 N6        29.90R
AINSWORTH      CLOUDY    57  56  97 N6        29.89R
ONEILL         CLOUDY    60  59  97 N7        29.84S
BROKEN BOW     CLOUDY    58  54  86 N14       29.83F
IMPERIAL       CLOUDY    54  50  86 NW9       29.90F
NORTH PLATTE   CLOUDY    55  50  83 NW9       29.89R
MCCOOK         CLEAR     56  52  86 NW10      29.86R

...EASTERN NEBRASKA...

CITY           SKY/WX    TMP DP  RH WIND       PRES   REMARKS
NORFOLK        CLOUDY    62  54  74 N8        29.80S
SO SIOUX CITY  CLOUDY    66  57  72 SW8       29.78S
TEKAMAH        CLOUDY    63  60  90 S15       29.79S
COLUMBUS       CLOUDY   N/A N/A N/A MISG        N/A
ALBION         LGT RAIN  59  57  92 CALM      29.80S
OMAHA EPPLEY   CLOUDY    65  59  81 E5        29.80F
OFFUTT AFB     CLOUDY    61  59  94 E3        29.79F
MILLARD        CLOUDY    65  59  83 CALM      29.81F
LINCOLN        CLOUDY    64  57  78 SE3       29.80S
NEBRASKA CITY  CLOUDY    60  59  95 S6        29.81S
BEATRICE       CLOUDY    61  58  90 E6        29.81R
FALLS CITY     LGT RAIN  61  58  90 SE7       29.79F

...NORTHERN KANSAS...

CITY           SKY/WX    TMP DP  RH WIND       PRES   REMARKS
GOODLAND       PTCLDY    51  47  86 W7        29.94R
HILL CITY      CLOUDY    61  51  70 NW9       29.85R
NORTON         CLEAR     55  46  71 W8        29.83S
PHILLIPSBURG   CLEAR     63  54  72 W10       29.81S
SMITH CENTER   CLEAR     59  57  94 W6        29.81S
HAYS           CLOUDY    63  54  72 S7        29.84R
RUSSELL        CLOUDY    61  57  87 S17       29.82S
CONCORDIA      CLOUDY    62  55  77 SW9       29.79R
SALINA         CLOUDY    64  55  72 SW16      29.79R
TOPEKA         LGT RAIN  62  61  96 CALM      29.86R



USA.gov is the U.S. government's official web portal to all federal, state and local government web resources and services.